FDX113 KMIA-KMEM

Flight info

Callsign FDX113
Flight time N/A
Altitude 34000
Route HURCN4 SMELZ Q116 GOOGY WASER VANZE3
Aircraft A306/H-SDE3FGHIRWY/LB1

Departure

Time 2026-05-07 12:56
Airport Miami International Airport (KMIA)

Arrival

Time N/A
Airport Memphis International Airport (KMEM)
Time Latitude Longitude Altitude Speed Heading
2026-05-07 12:47 25.80516 -80.29451 23 ft 0 kts 359°
2026-05-07 12:47 25.80507 -80.29450 27 ft 4 kts 358°
2026-05-07 12:48 25.80481 -80.29449 26 ft 4 kts 355°
2026-05-07 12:48 25.80456 -80.29447 25 ft 4 kts 351°
2026-05-07 12:48 25.80436 -80.29436 24 ft 4 kts 292°
2026-05-07 12:48 25.80432 -80.29409 28 ft 2 kts 268°
2026-05-07 12:49 25.80432 -80.29402 28 ft 0 kts 268°
2026-05-07 12:52 25.80432 -80.29405 28 ft 2 kts 268°
2026-05-07 12:52 25.80431 -80.29435 24 ft 6 kts 268°
2026-05-07 12:52 25.80429 -80.29492 22 ft 9 kts 268°
2026-05-07 12:53 25.80426 -80.29570 25 ft 11 kts 268°
2026-05-07 12:53 25.80423 -80.29655 28 ft 12 kts 268°
2026-05-07 12:53 25.80419 -80.29753 27 ft 14 kts 267°
2026-05-07 12:53 25.80413 -80.29872 27 ft 17 kts 267°
2026-05-07 12:54 25.80409 -80.29966 27 ft 19 kts 267°
2026-05-07 12:54 25.80378 -80.30068 23 ft 12 kts 230°
2026-05-07 12:54 25.80312 -80.30118 22 ft 12 kts 200°
2026-05-07 12:54 25.80227 -80.30129 23 ft 14 kts 178°
2026-05-07 12:55 25.80127 -80.30119 21 ft 14 kts 173°
2026-05-07 12:55 25.80077 -80.30064 19 ft 14 kts 101°
2026-05-07 12:55 25.80084 -80.29798 19 ft 65 kts 87°
2026-05-07 12:55 25.80116 -80.29053 27 ft 127 kts 87°
2026-05-07 12:56 25.80169 -80.27860 55 ft 179 kts 86°
2026-05-07 12:56 25.80257 -80.26418 630 ft 198 kts 86°
2026-05-07 12:56 25.80354 -80.24848 1480 ft 203 kts 88°
2026-05-07 12:56 25.80438 -80.23267 2040 ft 214 kts 89°
2026-05-07 12:57 25.80495 -80.21552 2432 ft 232 kts 89°
2026-05-07 12:57 25.80563 -80.19681 2711 ft 252 kts 86°
2026-05-07 12:57 25.81061 -80.17773 3144 ft 266 kts 59°
2026-05-07 12:57 25.82404 -80.16371 3865 ft 270 kts 26°
2026-05-07 12:58 25.84216 -80.15895 4758 ft 269 kts
2026-05-07 12:58 25.86089 -80.15819 5587 ft 270 kts
2026-05-07 12:58 25.87986 -80.15769 6302 ft 275 kts
2026-05-07 12:58 25.89904 -80.15935 6983 ft 280 kts 348°
2026-05-07 12:59 25.91796 -80.16531 7683 ft 284 kts 343°
2026-05-07 12:59 25.93698 -80.17208 8349 ft 290 kts 343°
2026-05-07 12:59 25.95631 -80.17895 9050 ft 294 kts 343°
2026-05-07 12:59 25.97551 -80.18710 9763 ft 299 kts 332°
2026-05-07 13:00 25.99144 -80.20222 10309 ft 310 kts 306°
2026-05-07 13:00 26.00157 -80.22407 10599 ft 327 kts 292°
2026-05-07 13:00 26.01000 -80.24827 10860 ft 342 kts 291°
2026-05-07 13:00 26.01874 -80.27346 11097 ft 357 kts 291°
2026-05-07 13:01 26.02796 -80.29960 11336 ft 370 kts 292°
2026-05-07 13:01 26.03761 -80.32662 11557 ft 381 kts 292°
2026-05-07 13:01 26.04756 -80.35434 11847 ft 390 kts 292°
2026-05-07 13:01 26.05767 -80.38247 12267 ft 393 kts 292°
2026-05-07 13:02 26.06788 -80.41085 12740 ft 396 kts 292°
2026-05-07 13:02 26.07817 -80.43936 13212 ft 397 kts 292°
2026-05-07 13:02 26.08846 -80.46790 13719 ft 398 kts 292°
2026-05-07 13:02 26.09878 -80.49655 14189 ft 399 kts 292°
2026-05-07 13:03 26.10909 -80.52522 14639 ft 400 kts 292°
2026-05-07 13:03 26.11968 -80.55380 15096 ft 400 kts 295°
2026-05-07 13:03 26.13441 -80.58006 15540 ft 400 kts 310°
2026-05-07 13:03 26.15543 -80.60026 15997 ft 401 kts 328°
2026-05-07 13:04 26.18042 -80.61401 16449 ft 403 kts 336°
2026-05-07 13:04 26.20627 -80.62617 16876 ft 404 kts 336°
2026-05-07 13:04 26.23225 -80.63838 17287 ft 406 kts 336°
2026-05-07 13:04 26.25831 -80.65073 17712 ft 407 kts 336°
2026-05-07 13:05 26.28442 -80.66317 18151 ft 408 kts 335°
2026-05-07 13:05 26.31064 -80.67570 18519 ft 410 kts 335°
2026-05-07 13:05 26.33662 -80.68814 18834 ft 412 kts 335°
2026-05-07 13:05 26.36292 -80.70075 19146 ft 413 kts 335°
2026-05-07 13:06 26.38904 -80.71428 19446 ft 414 kts 330°
2026-05-07 13:06 26.41257 -80.73266 19755 ft 414 kts 317°
2026-05-07 13:06 26.43279 -80.75545 20056 ft 414 kts 312°
2026-05-07 13:06 26.45232 -80.77922 20362 ft 415 kts 311°
2026-05-07 13:07 26.47187 -80.80304 20656 ft 417 kts 311°
2026-05-07 13:07 26.49148 -80.82688 20944 ft 418 kts 311°
2026-05-07 13:07 26.51122 -80.85084 21247 ft 419 kts 311°
2026-05-07 13:07 26.53106 -80.87488 21526 ft 421 kts 311°
2026-05-07 13:08 26.55089 -80.89892 21808 ft 422 kts 311°
2026-05-07 13:08 26.57083 -80.92308 22074 ft 424 kts 311°
2026-05-07 13:08 26.59082 -80.94731 22344 ft 425 kts 311°
2026-05-07 13:08 26.61085 -80.97160 22668 ft 425 kts 311°
2026-05-07 13:09 26.63094 -80.99599 22936 ft 427 kts 311°
2026-05-07 13:09 26.65109 -81.02046 23211 ft 428 kts 311°
2026-05-07 13:09 26.67126 -81.04497 23464 ft 429 kts 311°
2026-05-07 13:09 26.69151 -81.06959 23698 ft 431 kts 311°
2026-05-07 13:10 26.71182 -81.09429 23903 ft 432 kts 311°
2026-05-07 13:10 26.73220 -81.11910 24098 ft 434 kts 310°
2026-05-07 13:10 26.75263 -81.14397 24297 ft 435 kts 310°
2026-05-07 13:10 26.77310 -81.16892 24510 ft 436 kts 310°
2026-05-07 13:11 26.79363 -81.19395 24703 ft 437 kts 310°
2026-05-07 13:11 26.81419 -81.21903 24898 ft 438 kts 310°
2026-05-07 13:11 26.83485 -81.24424 25095 ft 439 kts 310°
2026-05-07 13:11 26.85552 -81.26949 25292 ft 440 kts 310°
2026-05-07 13:12 26.87624 -81.29481 25471 ft 442 kts 310°
2026-05-07 13:12 26.89708 -81.32030 25618 ft 444 kts 310°
2026-05-07 13:12 26.91794 -81.34581 25863 ft 444 kts 310°
2026-05-07 13:12 26.93849 -81.37098 26100 ft 444 kts 310°
2026-05-07 13:13 26.95938 -81.39656 26281 ft 445 kts 310°
2026-05-07 13:13 26.98030 -81.42221 26458 ft 446 kts 310°
2026-05-07 13:13 27.00131 -81.44798 26622 ft 447 kts 310°
2026-05-07 13:13 27.02231 -81.47374 26805 ft 448 kts 310°
2026-05-07 13:14 27.04408 -81.49908 26957 ft 451 kts 314°
2026-05-07 13:14 27.06834 -81.52098 27134 ft 455 kts 322°
2026-05-07 13:14 27.09487 -81.54062 27300 ft 457 kts 324°
2026-05-07 13:14 27.12172 -81.55989 27465 ft 458 kts 324°
2026-05-07 13:15 27.14863 -81.57920 27616 ft 459 kts 324°
2026-05-07 13:15 27.17557 -81.59859 27816 ft 459 kts 324°
2026-05-07 13:15 27.20242 -81.61794 28038 ft 458 kts 324°
2026-05-07 13:15 27.22924 -81.63730 28277 ft 458 kts 324°
2026-05-07 13:16 27.25596 -81.65661 28579 ft 455 kts 323°
2026-05-07 13:16 27.28295 -81.67613 28742 ft 456 kts 323°
2026-05-07 13:16 27.30967 -81.69548 28934 ft 457 kts 323°
2026-05-07 13:16 27.33637 -81.71482 29166 ft 456 kts 323°
2026-05-07 13:17 27.36301 -81.73413 29402 ft 455 kts 323°
2026-05-07 13:17 27.38922 -81.75313 29641 ft 455 kts 323°
2026-05-07 13:17 27.41579 -81.77241 29870 ft 454 kts 323°
2026-05-07 13:17 27.44236 -81.79165 30108 ft 454 kts 324°
2026-05-07 13:18 27.47000 -81.80896 30303 ft 457 kts 330°
2026-05-07 13:18 27.49903 -81.82362 30502 ft 457 kts 332°
2026-05-07 13:18 27.52832 -81.83786 30688 ft 457 kts 332°
2026-05-07 13:18 27.55754 -81.85203 30882 ft 457 kts 332°
2026-05-07 13:19 27.58668 -81.86620 31087 ft 456 kts 332°
2026-05-07 13:19 27.61589 -81.88042 31278 ft 456 kts 332°
2026-05-07 13:19 27.64500 -81.89461 31480 ft 456 kts 332°
2026-05-07 13:19 27.67411 -81.90882 31685 ft 455 kts 332°
2026-05-07 13:20 27.70323 -81.92304 31889 ft 455 kts 332°
2026-05-07 13:20 27.73231 -81.93725 32093 ft 454 kts 332°
2026-05-07 13:20 27.76130 -81.95143 32302 ft 454 kts 332°
2026-05-07 13:20 27.79027 -81.96560 32514 ft 454 kts 332°
2026-05-07 13:21 27.81920 -81.97977 32725 ft 453 kts 332°
2026-05-07 13:21 27.84810 -81.99393 32969 ft 452 kts 332°
2026-05-07 13:21 27.87689 -82.00804 33249 ft 450 kts 332°
2026-05-07 13:21 27.90561 -82.02212 33481 ft 449 kts 332°
2026-05-07 13:22 27.93427 -82.03619 33679 ft 449 kts 332°
2026-05-07 13:22 27.96263 -82.05012 33871 ft 449 kts 332°
2026-05-07 13:22 27.99125 -82.06419 33999 ft 449 kts 332°
2026-05-07 13:22 28.02000 -82.07832 34008 ft 447 kts 332°
2026-05-07 13:23 28.07661 -82.10696 34016 ft 443 kts 327°
2026-05-07 13:23 28.12820 -82.14427 34018 ft 439 kts 321°
2026-05-07 13:24 28.17808 -82.18427 34018 ft 437 kts 320°
2026-05-07 13:24 28.22752 -82.22433 34116 ft 434 kts 320°
2026-05-07 13:25 28.25198 -82.24397 34480 ft 429 kts 320°
2026-05-07 13:25 28.27641 -82.26357 34500 ft 432 kts 320°
2026-05-07 13:25 28.30104 -82.28335 34284 ft 435 kts 320°
2026-05-07 13:25 28.32549 -82.30295 34057 ft 436 kts 320°
2026-05-07 13:26 28.37510 -82.34272 34000 ft 437 kts 320°
2026-05-07 13:26 28.42511 -82.38280 34000 ft 437 kts 320°
2026-05-07 13:27 28.47479 -82.42266 34000 ft 436 kts 320°
2026-05-07 13:27 28.52396 -82.46217 34000 ft 435 kts 320°
2026-05-07 13:28 28.57335 -82.50194 33991 ft 435 kts 320°
2026-05-07 13:28 28.62278 -82.54177 33990 ft 435 kts 320°
2026-05-07 13:29 28.67216 -82.58160 33984 ft 435 kts 320°
2026-05-07 13:29 28.72157 -82.62151 33985 ft 435 kts 320°
2026-05-07 13:30 28.77087 -82.66139 33995 ft 435 kts 319°
2026-05-07 13:30 28.82017 -82.70130 33985 ft 434 kts 319°
2026-05-07 13:31 28.86938 -82.74119 33995 ft 434 kts 319°
2026-05-07 13:31 28.91854 -82.78109 34076 ft 434 kts 319°
2026-05-07 13:32 28.96774 -82.82106 34071 ft 434 kts 319°
2026-05-07 13:32 29.01697 -82.86111 34064 ft 434 kts 319°
2026-05-07 13:33 29.05778 -82.89435 34061 ft 434 kts 319°
2026-05-07 13:33 29.10683 -82.93433 34057 ft 432 kts 319°
2026-05-07 13:34 29.18029 -82.99432 34057 ft 432 kts 319°
2026-05-07 13:35 29.22917 -83.03431 34053 ft 432 kts 319°
2026-05-07 13:35 29.27811 -83.07438 34050 ft 432 kts 319°
2026-05-07 13:36 29.32664 -83.11417 34050 ft 432 kts 319°
2026-05-07 13:36 29.37549 -83.15426 34065 ft 432 kts 318°
2026-05-07 13:37 29.42422 -83.19428 34054 ft 430 kts 318°
2026-05-07 13:37 29.47286 -83.23431 34050 ft 430 kts 318°
2026-05-07 13:38 29.52158 -83.27446 34057 ft 430 kts 318°
2026-05-07 13:38 29.57032 -83.31467 34061 ft 430 kts 318°
2026-05-07 13:39 29.61889 -83.35477 34057 ft 430 kts 318°
2026-05-07 13:39 29.66755 -83.39499 34082 ft 430 kts 318°
2026-05-07 13:40 29.71609 -83.43514 34052 ft 427 kts 318°
2026-05-07 13:40 29.76397 -83.47484 34051 ft 427 kts 318°
2026-05-07 13:41 29.81219 -83.51487 34058 ft 427 kts 318°
2026-05-07 13:41 29.86039 -83.55492 34064 ft 427 kts 318°
2026-05-07 13:42 29.90853 -83.59494 34064 ft 427 kts 318°
2026-05-07 13:42 29.95676 -83.63507 34070 ft 427 kts 318°
2026-05-07 13:43 30.00496 -83.67522 34073 ft 426 kts 318°
2026-05-07 13:43 30.05293 -83.71523 34070 ft 425 kts 318°
2026-05-07 13:44 30.10096 -83.75535 34071 ft 426 kts 318°
2026-05-07 13:44 30.14865 -83.79523 34065 ft 425 kts 318°
2026-05-07 13:45 30.19655 -83.83536 34061 ft 425 kts 318°
2026-05-07 13:45 30.24451 -83.87560 34043 ft 425 kts 318°
2026-05-07 13:46 30.29255 -83.91592 34049 ft 428 kts 318°
2026-05-07 13:46 30.34112 -83.95681 34053 ft 434 kts 318°
2026-05-07 13:47 30.39008 -83.99808 34053 ft 435 kts 318°
2026-05-07 13:47 30.43899 -84.03932 34048 ft 435 kts 318°
2026-05-07 13:48 30.48790 -84.08061 34048 ft 435 kts 318°
2026-05-07 13:48 30.53676 -84.12192 34047 ft 435 kts 318°
2026-05-07 13:49 30.58561 -84.16330 34050 ft 435 kts 318°
2026-05-07 13:49 30.63446 -84.20468 34044 ft 435 kts 318°
2026-05-07 13:50 30.68309 -84.24594 34041 ft 434 kts 318°
2026-05-07 13:50 30.73192 -84.28748 34034 ft 435 kts 318°
2026-05-07 13:51 30.78086 -84.32911 34027 ft 436 kts 318°
2026-05-07 13:51 30.82993 -84.37090 34023 ft 437 kts 318°
2026-05-07 13:52 30.87875 -84.41255 34014 ft 439 kts 318°
2026-05-07 13:52 30.92813 -84.45474 34012 ft 440 kts 318°
2026-05-07 13:53 30.97753 -84.49697 34066 ft 440 kts 318°
2026-05-07 13:53 31.02700 -84.53934 34069 ft 440 kts 318°
2026-05-07 13:54 31.07636 -84.58167 34065 ft 440 kts 318°
2026-05-07 13:54 31.12575 -84.62408 34054 ft 440 kts 318°
2026-05-07 13:55 31.17500 -84.66642 34039 ft 439 kts 318°
2026-05-07 13:55 31.22373 -84.70836 34005 ft 437 kts 317°
2026-05-07 13:56 31.27265 -84.75055 34011 ft 437 kts 317°
2026-05-07 13:56 31.32153 -84.79276 34028 ft 436 kts 317°
2026-05-07 13:57 31.37040 -84.83503 34025 ft 436 kts 317°
2026-05-07 13:57 31.41924 -84.87730 34024 ft 436 kts 317°
2026-05-07 13:58 31.46812 -84.91964 34032 ft 436 kts 317°
2026-05-07 13:58 31.51692 -84.96200 34017 ft 436 kts 317°
2026-05-07 13:59 31.56574 -85.00440 34014 ft 436 kts 317°
2026-05-07 13:59 31.61443 -85.04692 34013 ft 436 kts 317°
2026-05-07 14:00 31.66295 -85.08941 33986 ft 440 kts 317°
2026-05-07 14:00 31.71236 -85.13277 34002 ft 441 kts 316°
2026-05-07 14:01 31.76169 -85.17614 33987 ft 444 kts 316°
2026-05-07 14:01 31.81121 -85.21971 33984 ft 444 kts 316°
2026-05-07 14:02 31.86078 -85.26333 33983 ft 444 kts 316°
2026-05-07 14:02 31.91027 -85.30695 33983 ft 443 kts 316°
2026-05-07 14:03 31.95945 -85.35036 33980 ft 441 kts 316°
2026-05-07 14:03 32.00862 -85.39383 33974 ft 442 kts 315°
2026-05-07 14:04 32.05787 -85.43748 33978 ft 444 kts 315°
2026-05-07 14:04 32.10705 -85.48109 33960 ft 441 kts 315°
2026-05-07 14:05 32.15577 -85.52431 33954 ft 440 kts 315°
2026-05-07 14:05 32.18853 -85.55340 33951 ft 440 kts 315°